W0QQ Weather Reports


Display with metric or nautical units.
time (UTC)temp
F
wind
direction
speed
MPH
gust
MPH
rain 1hr
in
rain 24hr
in
rain mn
in
humidity
%
barometer
mb
20260902191503 100 11 7.0 19.0 0.00 0.00 0.00 42 1012.0
20260902190049 100 250 8.0 14.0 0.00 0.00 0.00 43 1012.1
20260902184502 99 11 7.0 19.0 0.00 0.00 0.00 45 1012.3
20260902183042 99 199 5.0 23.0 0.00 0.00 0.00 45 1012.5
20260902181628 99 205 7.0 15.0 0.00 0.00 0.00 46 1012.6
20260902180039 98 11 4.0 18.0 0.00 0.00 0.00 50 1012.9
20260902174518 97 11 7.0 18.0 0.00 0.00 0.00 49 1013.0
20260902173053 97 196 5.0 16.0 0.00 0.00 0.00 51 1013.2
20260902171509 96 11 8.0 20.0 0.00 0.00 0.00 51 1013.4
20260902170052 95 11 4.0 18.0 0.00 0.00 0.00 52 1013.7
20260902164547 94 11 7.0 18.0 0.00 0.00 0.00 53 1013.7
20260902163132 94 11 6.0 20.0 0.00 0.00 0.00 54 1013.8
20260902161610 93 233 5.0 20.0 0.00 0.00 0.00 55 1013.9
20260902160024 92 11 5.0 17.0 0.00 0.00 0.00 57 1013.7
20260902154613 91 11 5.0 21.0 0.00 0.00 0.00 58 1013.9
20260902153031 89 255 5.0 16.0 0.00 0.00 0.00 59 1013.8
20260902151623 88 200 8.0 23.0 0.00 0.00 0.00 60 1013.9
20260902150034 88 274 9.0 17.0 0.00 0.00 0.00 61 1014.0
20260902144628 86 11 1.0 16.0 0.00 0.00 0.00 65 1014.0
20260902143040 85 11 4.0 21.0 0.00 0.00 0.00 66 1014.2
20260902141639 83 11 5.0 15.0 0.00 0.00 0.00 67 1014.1
20260902140104 82 191 6.0 17.0 0.00 0.00 0.00 68 1014.1
20260902134512 81 11 3.0 19.0 0.00 0.00 0.00 69 1014.1
20260902133107 80 11 4.0 15.0 0.00 0.00 0.00 69 1013.9
20260902131524 80 11 4.0 12.0 0.00 0.00 0.00 70 1013.8
20260902130115 79 11 5.0 16.0 0.00 0.00 0.00 70 1013.8
20260902124523 79 11 4.0 14.0 0.00 0.00 0.00 71 1013.7
20260902123110 78 181 5.0 13.0 0.00 0.00 0.00 71 1013.5
20260902121524 78 177 4.0 11.0 0.00 0.00 0.00 72 1013.5
20260902120117 78 11 3.0 11.0 0.00 0.00 0.00 72 1013.4
20260902114539 78 203 3.0 10.0 0.00 0.00 0.00 71 1013.3
20260902113127 78 170 3.0 9.0 0.00 0.00 0.00 71 1013.2
20260902111530 78 11 3.0 8.0 0.00 0.00 0.00 70 1013.2
20260902110129 79 11 3.0 11.0 0.00 0.00 0.00 69 1013.2
20260902104602 79 11 2.0 13.0 0.00 0.00 0.00 68 1013.1
20260902103126 79 11 3.0 10.0 0.00 0.00 0.00 68 1013.0
20260902101542 79 207 4.0 12.0 0.00 0.00 0.00 67 1013.0
20260902100123 79 207 4.0 15.0 0.00 0.00 0.00 67 1012.7
20260902094538 79 165 4.0 16.0 0.00 0.00 0.00 68 1012.7
20260902093133 78 11 3.0 10.0 0.00 0.00 0.00 68 1012.7
20260902091541 78 182 2.0 10.0 0.00 0.00 0.00 68 1012.7
20260902090130 78 11 3.0 9.0 0.00 0.00 0.00 68 1012.5
20260902084554 78 11 2.0 12.0 0.00 0.00 0.00 68 1012.6
20260902083003 79 11 1.0 6.0 0.00 0.00 0.00 67 1012.4
20260902081543 79 185 1.0 5.0 0.00 0.00 0.00 66 1012.2
20260902080127 80 11 1.0 6.0 0.00 0.00 0.00 65 1012.2
20260902074633 81 184 2.0 8.0 0.00 0.00 0.00 63 1012.3
20260902073030 81 11 2.0 9.0 0.00 0.00 0.00 62 1012.1
20260902071614 82 161 2.0 9.0 0.00 0.00 0.00 62 1012.1
20260902070040 82 11 3.0 8.0 0.00 0.00 0.00 61 1012.1
20260902064629 83 11 2.0 8.0 0.00 0.00 0.00 60 1012.2
20260902063043 83 11 2.0 8.0 0.00 0.00 0.00 60 1012.4
20260902061622 83 196 2.0 6.0 0.00 0.00 0.00 59 1012.3
20260902060035 83 11 3.0 12.0 0.00 0.00 0.00 58 1012.2
20260902054501 84 11 3.0 9.0 0.00 0.00 0.00 58 1012.2
20260902053105 84 190 3.0 13.0 0.00 0.00 0.00 58 1012.2
20260902051636 84 11 3.0 11.0 0.00 0.00 0.00 57 1012.2
20260902050059 84 11 3.0 10.0 0.00 0.00 0.00 57 1012.2
20260902044546 84 11 4.0 12.0 0.00 0.00 0.00 57 1012.3
20260902043131 84 173 3.0 10.0 0.00 0.00 0.00 56 1012.3
20260902041543 84 11 3.0 14.0 0.00 0.00 0.00 56 1012.3
20260902040133 84 11 2.0 9.0 0.00 0.00 0.00 56 1012.2
20260902034545 84 11 3.0 9.0 0.00 0.00 0.00 56 1012.3
20260902033001 84 176 3.0 9.0 0.00 0.00 0.00 56 1012.4
20260902031547 84 178 1.0 8.0 0.00 0.00 0.00 57 1012.1
20260902030009 84 11 1.0 5.0 0.00 0.00 0.00 56 1012.1
20260902024601 85 11 1.0 6.0 0.00 0.00 0.00 55 1011.9
20260902023026 85 11 1.0 8.0 0.00 0.00 0.00 55 1011.8
20260902021602 85 181 1.0 6.0 0.00 0.00 0.00 55 1011.8
20260902020023 86 11 1.0 5.0 0.00 0.00 0.00 54 1011.7
20260902014601 87 11 1.0 5.0 0.00 0.00 0.00 53 1011.6
20260902013013 88 11 0.0 3.0 0.00 0.00 0.00 52 1011.4
20260902011638 89 186 1.0 3.0 0.00 0.00 0.00 50 1011.3
20260902010025 90 11 1.0 5.0 0.00 0.00 0.00 49 1011.3
20260902004613 91 11 1.0 5.0 0.00 0.00 0.00 48 1011.3
20260902003020 92 11 1.0 3.0 0.00 0.00 0.00 46 1011.3
20260902001610 93 11 2.0 5.0 0.00 0.00 0.00 45 1011.5
20260902000031 94 174 1.0 5.0 0.00 0.00 0.00 44 1011.6
20260901234620 95 11 2.0 6.0 0.00 0.00 0.00 43 1011.6
20260901233041 95 186 3.0 10.0 0.00 0.00 0.00 40 1011.6
20260901231626 96 11 4.0 13.0 0.00 0.00 0.00 39 1011.6
20260901230035 96 11 5.0 14.0 0.00 0.00 0.00 38 1011.5
20260901224626 97 11 4.0 14.0 0.00 0.00 0.00 39 1011.5
20260901223041 97 11 5.0 16.0 0.00 0.00 0.00 38 1011.6
20260901221516 97 194 2.0 17.0 0.00 0.00 0.00 38 1011.5
20260901220049 98 207 4.0 13.0 0.00 0.00 0.00 37 1011.6
20260901214631 98 11 5.0 14.0 0.00 0.00 0.00 36 1011.6
20260901213102 99 11 7.0 21.0 0.00 0.00 0.00 35 1011.8
20260901211512 100 11 5.0 20.0 0.00 0.00 0.00 34 1012.0
20260901210052 101 257 4.0 19.0 0.00 0.00 0.00 35 1012.1
20260901204516 101 11 3.0 16.0 0.00 0.00 0.00 34 1012.2
20260901203100 100 11 7.0 17.0 0.00 0.00 0.00 34 1012.5
20260901201510 101 11 6.0 14.0 0.00 0.00 0.00 35 1012.6
20260901200116 100 11 4.0 18.0 0.00 0.00 0.00 34 1012.7
20260901194514 101 11 5.0 16.0 0.00 0.00 0.00 36 1012.9
20260901193055 101 11 5.0 17.0 0.00 0.00 0.00 36 1012.9